When you browse on this site, cookies collect data to enhance your experience and personalize the content and advertising you see.
Visit our Privacy Policy to learn more. By continuing to use the site, you agree to this use of cookies and data.
  • In Hungary
  • List of Countries
  • For 7 days
  • Water Temperature
  • Weather Map
  • News
  • Weather Widgets
  • user-avatar
    Login

    Hourly Weather Yuma

    Today, 9 December, Monday

    Time Temperature Precipitation Wind Pressure Humidity
    00:00 +17°C° 0 mm 5 mps 755 mmHg 57%
    01:00 +17°C° 0 mm 5 mps 755 mmHg 58%
    02:00 +16°C° 0 mm 6 mps 755 mmHg 58%
    03:00 +16°C° 0 mm 6 mps 755 mmHg 58%
    04:00 +15°C° 0 mm 7 mps 756 mmHg 58%
    05:00 +15°C° 0 mm 6 mps 756 mmHg 60%
    06:00 +14°C° 0 mm 5 mps 756 mmHg 61%
    07:00 +14°C° 0 mm 4 mps 756 mmHg 62%
    08:00 +15°C° 0 mm 4 mps 757 mmHg 56%
    09:00 +17°C° 0 mm 5 mps 757 mmHg 50%
    10:00 +19°C° 0 mm 6 mps 757 mmHg 44%
    11:00 +20°C° 0 mm 6 mps 757 mmHg 40%
    12:00 +21°C° 0 mm 6 mps 756 mmHg 37%
    13:00 +22°C° 0 mm 7 mps 756 mmHg 34%
    14:00 +22°C° 0 mm 6 mps 756 mmHg 33%
    15:00 +22°C° 0 mm 5 mps 756 mmHg 32%
    16:00 +22°C° 0 mm 5 mps 757 mmHg 31%
    17:00 +21°C° 0 mm 4 mps 757 mmHg 34%
    18:00 +20°C° 0 mm 4 mps 757 mmHg 36%
    19:00 +19°C° 0 mm 3 mps 758 mmHg 39%
    20:00 +18°C° 0 mm 3 mps 758 mmHg 40%
    21:00 +18°C° 0 mm 3 mps 759 mmHg 41%
    22:00 +17°C° 0 mm 3 mps 759 mmHg 42%
    23:00 +17°C° 0 mm 3 mps 759 mmHg 42%

    Tomorrow, 10 December, Tuesday

    Time Temperature Precipitation Wind Pressure Humidity
    00:00 +16°C° 0 mm 3 mps 760 mmHg 42%
    01:00 +16°C° 0 mm 3 mps 760 mmHg 43%
    02:00 +14°C° 0 mm 3 mps 760 mmHg 44%
    03:00 +15°C° 0 mm 2 mps 760 mmHg 45%
    04:00 +14°C° 0 mm 2 mps 760 mmHg 47%
    05:00 +14°C° 0 mm 2 mps 761 mmHg 47%
    06:00 +14°C° 0 mm 2 mps 761 mmHg 48%
    07:00 +14°C° 0 mm 2 mps 762 mmHg 48%
    08:00 +16°C° 0 mm 2 mps 762 mmHg 43%
    09:00 +18°C° 0 mm 3 mps 763 mmHg 38%
    10:00 +20°C° 0 mm 3 mps 763 mmHg 33%
    11:00 +20°C° 0 mm 3 mps 762 mmHg 32%
    12:00 +21°C° 0 mm 3 mps 762 mmHg 30%
    13:00 +23°C° 0 mm 2 mps 761 mmHg 29%
    14:00 +21°C° 0 mm 2 mps 761 mmHg 31%
    15:00 +22°C° 0 mm 1 mps 761 mmHg 33%
    16:00 +22°C° 0 mm 1 mps 761 mmHg 35%
    17:00 +21°C° 0 mm 1 mps 761 mmHg 36%
    18:00 +19°C° 0 mm 2 mps 761 mmHg 37%
    19:00 +18°C° 0 mm 2 mps 761 mmHg 38%
    20:00 +18°C° 0 mm 2 mps 762 mmHg 39%
    21:00 +17°C° 0 mm 2 mps 762 mmHg 40%
    22:00 +18°C° 0 mm 1 mps 762 mmHg 41%
    23:00 +16°C° 0 mm 1 mps 761 mmHg 42%

    Day after tomorrow, 11 December, Wednesday

    Time Temperature Precipitation Wind Pressure Humidity
    00:00 +16°C° 0 mm 1 mps 761 mmHg 43%
    01:00 +16°C° 0 mm 1 mps 761 mmHg 44%
    02:00 +16°C° 0 mm 1 mps 760 mmHg 45%
    03:00 +16°C° 0 mm 1 mps 760 mmHg 45%
    04:00 +16°C° 0 mm 1 mps 760 mmHg 45%
    05:00 +15°C° 0 mm 1 mps 760 mmHg 47%
    06:00 +15°C° 0 mm 1 mps 760 mmHg 48%
    07:00 +15°C° 0 mm 1 mps 760 mmHg 50%
    08:00 +18°C° 0 mm 1 mps 760 mmHg 45%
    09:00 +19°C° 0 mm 1 mps 760 mmHg 41%
    10:00 +21°C° 0 mm 1 mps 761 mmHg 36%
    11:00 +22°C° 0 mm 1 mps 760 mmHg 34%
    12:00 +23°C° 0 mm 1 mps 759 mmHg 32%
    13:00 +23°C° 0 mm 1 mps 759 mmHg 30%
    14:00 +23°C° 0 mm 2 mps 759 mmHg 29%
    15:00 +23°C° 0 mm 2 mps 759 mmHg 29%
    16:00 +22°C° 0 mm 3 mps 758 mmHg 28%
    17:00 +21°C° 0 mm 2 mps 759 mmHg 29%
    18:00 +20°C° 0 mm 2 mps 759 mmHg 31%
    19:00 +19°C° 0 mm 2 mps 759 mmHg 32%
    20:00 +18°C° 0 mm 2 mps 760 mmHg 33%
    21:00 +18°C° 0 mm 3 mps 760 mmHg 34%
    22:00 +17°C° 0 mm 3 mps 760 mmHg 35%
    23:00 +17°C° 0 mm 3 mps 760 mmHg 37%

    12 December, Thursday

    Time Temperature Precipitation Wind Pressure Humidity
    00:00 +16°C° 0 mm 3 mps 760 mmHg 38%
    01:00 +16°C° 0 mm 3 mps 760 mmHg 40%
    02:00 +14°C° 0 mm 3 mps 760 mmHg 40%
    03:00 +14°C° 0 mm 3 mps 760 mmHg 41%
    04:00 +14°C° 0 mm 3 mps 760 mmHg 41%
    05:00 +14°C° 0 mm 3 mps 761 mmHg 42%
    06:00 +13°C° 0 mm 3 mps 761 mmHg 43%
    07:00 +13°C° 0 mm 3 mps 762 mmHg 43%
    08:00 +16°C° 0 mm 3 mps 762 mmHg 39%
    09:00 +18°C° 0 mm 3 mps 763 mmHg 34%
    10:00 +20°C° 0 mm 4 mps 763 mmHg 29%
    11:00 +21°C° 0 mm 4 mps 762 mmHg 27%
    12:00 +21°C° 0 mm 4 mps 762 mmHg 26%
    13:00 +22°C° 0 mm 4 mps 761 mmHg 24%
    14:00 +22°C° 0 mm 4 mps 761 mmHg 25%
    15:00 +21°C° 0 mm 4 mps 761 mmHg 27%
    16:00 +21°C° 0 mm 3 mps 761 mmHg 28%
    17:00 +20°C° 0 mm 3 mps 761 mmHg 30%
    18:00 +19°C° 0 mm 3 mps 761 mmHg 32%
    19:00 +18°C° 0 mm 3 mps 762 mmHg 34%
    20:00 +17°C° 0 mm 2 mps 762 mmHg 35%
    21:00 +17°C° 0 mm 2 mps 762 mmHg 35%
    22:00 +16°C° 0 mm 2 mps 762 mmHg 36%
    23:00 +16°C° 0 mm 2 mps 762 mmHg 36%

    13 December, Friday

    Time Temperature Precipitation Wind Pressure Humidity
    00:00 +16°C° 0 mm 2 mps 761 mmHg 37%
    01:00 +15°C° 0 mm 2 mps 761 mmHg 38%
    02:00 +15°C° 0 mm 2 mps 761 mmHg 38%
    03:00 +15°C° 0 mm 2 mps 761 mmHg 39%
    04:00 +15°C° 0 mm 2 mps 761 mmHg 39%
    05:00 +14°C° 0 mm 1 mps 761 mmHg 40%
    06:00 +14°C° 0 mm 1 mps 761 mmHg 41%
    07:00 +14°C° 0 mm 1 mps 761 mmHg 41%
    08:00 +16°C° 0 mm 1 mps 761 mmHg 36%
    09:00 +19°C° 0 mm 1 mps 761 mmHg 32%
    10:00 +21°C° 0 mm 1 mps 761 mmHg 27%
    11:00 +21°C° 0 mm 2 mps 761 mmHg 25%
    12:00 +23°C° 0 mm 2 mps 760 mmHg 23%
    13:00 +24°C° 0 mm 2 mps 759 mmHg 22%
    14:00 +24°C° 0 mm 2 mps 759 mmHg 23%
    15:00 +23°C° 0 mm 2 mps 759 mmHg 24%
    16:00 +23°C° 0 mm 2 mps 758 mmHg 26%
    17:00 +21°C° 0 mm 2 mps 758 mmHg 28%
    18:00 +20°C° 0 mm 2 mps 759 mmHg 30%
    19:00 +19°C° 0 mm 2 mps 759 mmHg 32%
    20:00 +18°C° 0 mm 2 mps 759 mmHg 33%
    21:00 +18°C° 0 mm 2 mps 759 mmHg 34%
    22:00 +18°C° 0 mm 1 mps 759 mmHg 34%
    23:00 +18°C° 0 mm 1 mps 758 mmHg 35%

    14 December, Saturday

    Time Temperature Precipitation Wind Pressure Humidity
    00:00 +17°C° 0 mm 2 mps 758 mmHg 36%
    01:00 +16°C° 0 mm 2 mps 758 mmHg 36%
    02:00 +16°C° 0 mm 2 mps 757 mmHg 37%
    03:00 +16°C° 0 mm 1 mps 757 mmHg 37%
    04:00 +15°C° 0 mm 1 mps 757 mmHg 38%
    05:00 +15°C° 0 mm 1 mps 757 mmHg 39%
    06:00 +15°C° 0 mm 1 mps 757 mmHg 40%
    07:00 +15°C° 0 mm 1 mps 757 mmHg 41%
    08:00 +18°C° 0 mm 1 mps 757 mmHg 36%
    09:00 +20°C° 0 mm 1 mps 757 mmHg 31%
    10:00 +22°C° 0 mm 1 mps 757 mmHg 26%
    11:00 +23°C° 0 mm 1 mps 756 mmHg 25%
    12:00 +24°C° 0 mm 1 mps 755 mmHg 24%
    13:00 +25°C° 0 mm 1 mps 754 mmHg 22%
    14:00 +24°C° 0 mm 1 mps 754 mmHg 24%
    15:00 +24°C° 0 mm 1 mps 754 mmHg 26%
    16:00 +24°C° 0 mm 1 mps 753 mmHg 28%
    17:00 +23°C° 0 mm 1 mps 753 mmHg 29%
    18:00 +21°C° 0 mm 2 mps 753 mmHg 29%
    19:00 +20°C° 0 mm 2 mps 753 mmHg 30%
    20:00 +19°C° 0 mm 2 mps 753 mmHg 31%
    21:00 +19°C° 0 mm 2 mps 753 mmHg 33%
    22:00 +18°C° 0 mm 2 mps 753 mmHg 34%
    23:00 +18°C° 0 mm 2 mps 752 mmHg 36%
    Show more